Theta_e
324 322 323 323 323 323 324 324 326 327 327 331 334 334 336 335 335 334 334 334 333 333 331 331 331 330 331 331 331 332 332 332 331 328 325 325 324 323 327 326 326 328 329 328 324 319 315 309 308 312 315 316 316 316 315 315 315 317 319 318 316 316 318
324 323 323 322 321 324 323 324 325 325 326 328 329 332 333 334 334 334 335 334 334 333 331 330 332 330 330 330 330 330 332 332 333 331 327 325 326 323 324 325 327 326 326 327 327 323 312 307 308 309 310 314 314 315 315 315 314 315 316 316 315 315 317
323 323 323 321 322 324 323 323 324 325 325 327 327 328 329 330 332 333 333 333 333 331 329 330 329 330 330 331 331 332 333 331 331 330 328 327 327 327 327 325 322 320 317 315 314 310 313 311 307 309 312 311 307 310 315 313 312 313 313 315 315 314 315
324 324 321 321 320 322 322 322 323 323 325 324 325 326 325 327 328 328 328 328 328 327 326 327 328 327 328 328 329 330 331 330 330 329 327 327 328 326 322 321 319 318 316 314 312 311 308 309 309 309 312 311 308 308 311 314 312 310 310 312 312 313 315
325 323 323 321 321 321 322 321 321 323 323 323 324 325 325 325 326 325 325 325 325 326 326 326 325 325 325 326 327 328 328 328 329 328 327 325 323 321 320 319 318 317 315 312 310 311 310 308 310 310 309 309 309 307 309 313 311 310 309 309 310 311 313
325 325 324 322 322 321 321 322 322 322 322 323 324 324 323 324 325 325 324 324 324 324 324 323 322 322 324 325 326 326 326 326 325 324 321 321 321 317 317 318 315 313 312 314 313 311 313 313 312 309 309 311 308 307 307 310 308 308 309 308 309 309 311
323 324 324 322 321 321 322 323 323 323 323 325 324 323 321 321 322 323 323 323 322 321 321 321 321 321 323 323 324 323 322 320 320 321 319 320 320 320 319 315 315 314 314 315 314 313 312 310 309 309 309 310 309 304 306 307 309 306 306 307 308 308 310
322 322 322 322 321 320 319 321 322 324 324 323 322 321 320 321 321 322 322 321 320 320 320 320 320 320 321 319 320 320 318 318 319 319 318 318 317 316 319 316 315 314 313 313 314 313 312 313 311 311 309 305 305 306 304 306 305 306 306 306 305 306 308
322 322 320 319 318 318 319 319 319 322 322 321 320 320 319 320 321 320 319 319 318 319 319 319 319 319 320 319 317 318 316 316 318 318 317 317 317 318 317 317 314 312 315 313 313 314 313 314 313 312 313 309 305 303 305 305 305 303 306 305 304 305 305
323 322 322 321 320 318 316 317 319 320 321 321 320 320 320 320 320 320 320 318 318 318 319 318 317 318 319 319 318 317 315 316 316 315 316 315 316 315 315 317 314 313 313 315 314 314 315 315 314 314 312 311 309 304 302 302 304 304 303 303 301 302 305
323 320 321 322 320 318 315 314 317 319 321 321 321 320 320 320 320 318 319 319 319 319 319 318 317 317 318 316 316 314 314 315 313 314 315 314 315 315 315 314 314 312 315 315 314 316 316 316 314 313 312 312 312 308 307 303 302 306 304 304 303 302 303
323 322 323 323 318 316 316 315 316 320 320 320 320 320 320 320 320 319 319 319 319 319 318 318 317 317 318 316 316 313 314 315 313 313 314 315 315 316 315 314 315 313 316 316 316 316 315 315 314 313 312 312 312 312 310 307 303 303 308 302 303 304 302
321 320 321 321 319 317 317 315 316 317 320 320 322 321 320 319 320 319 319 318 319 319 318 318 317 316 317 317 316 314 315 315 313 312 312 314 312 315 314 313 314 313 314 313 314 315 314 315 315 312 313 312 311 312 310 308 305 302 305 302 303 302 303
321 321 320 320 319 319 318 316 316 318 317 321 321 321 319 319 319 319 318 318 318 319 318 318 318 317 317 316 317 316 315 314 312 313 314 313 313 314 311 311 312 313 314 313 312 313 312 312 314 313 313 311 310 311 309 308 304 302 303 305 304 301 303
323 323 322 321 320 319 319 318 317 316 316 318 320 319 318 320 320 318 317 317 318 317 317 317 317 317 316 317 317 317 317 314 313 313 314 312 313 313 315 311 310 311 312 311 312 309 310 310 309 309 309 310 308 308 310 305 304 303 301 303 302 302 301
323 325 323 321 320 319 320 320 318 318 317 317 318 320 319 318 317 317 316 316 316 316 316 316 317 316 316 317 317 318 318 316 315 314 314 312 310 312 313 312 311 312 312 312 313 311 312 310 309 308 309 309 308 306 304 305 306 304 302 300 303 301 302
324 324 323 323 321 321 321 320 319 318 317 317 316 318 319 318 317 316 316 315 315 315 316 317 317 316 315 315 315 316 318 317 317 316 314 313 311 312 312 312 312 313 312 312 311 311 311 311 310 309 309 309 307 304 306 307 308 307 304 301 300 299 301
323 323 322 323 323 323 322 322 321 319 319 318 318 318 318 318 317 316 317 316 316 316 317 318 317 316 317 317 316 316 315 316 318 317 317 316 314 314 314 313 313 312 313 311 313 311 311 311 309 310 308 307 305 305 306 306 306 307 306 303 302 302 303
322 322 322 322 322 322 322 322 321 321 318 318 319 319 318 318 317 317 318 318 318 319 319 320 319 319 319 319 319 318 317 316 316 316 317 316 315 316 316 314 315 314 313 313 312 313 313 312 310 310 308 306 304 305 306 306 307 307 305 303 304 302 304
321 322 322 322 323 322 322 322 322 320 320 320 319 319 319 319 320 319 319 320 320 320 320 320 320 321 320 320 320 319 319 318 317 317 317 316 316 316 316 316 316 316 315 314 314 314 313 313 312 310 310 309 304 305 306 306 306 306 305 304 303 304 303
320 321 322 322 322 322 322 322 321 321 320 320 320 319 319 320 322 322 322 321 321 321 317 316 317 318 318 320 321 321 321 320 318 318 319 317 317 316 316 316 316 316 315 316 316 316 315 313 312 311 311 308 307 306 306 306 307 306 305 305 304 303 303
321 321 320 321 321 321 321 321 321 321 321 321 321 321 321 321 321 320 320 321 319 316 315 315 316 316 316 317 319 319 320 319 318 318 319 320 319 318 317 317 316 316 316 312 307 309 310 309 312 310 309 308 307 306 306 306 307 306 305 305 304 305 304
320 321 321 322 321 321 321 321 321 321 319 319 321 322 320 320 320 319 318 318 318 316 315 315 311 307 306 315 318 317 318 319 319 319 319 319 320 320 319 319 318 311 307 305 302 299 298 300 304 310 310 308 305 306 306 306 305 306 307 305 304 304 304
321 320 321 321 321 319 318 318 318 319 319 319 319 320 321 319 319 318 316 315 314 314 316 314 305 301 300 300 309 317 318 320 321 320 320 320 320 321 322 320 320 315 309 305 306 298 297 296 296 297 300 301 302 307 306 305 306 306 303 304 303 302 301
319 319 320 320 319 319 319 318 318 318 317 317 317 318 319 319 319 319 318 318 318 318 319 306 300 299 299 298 299 312 317 318 319 320 320 319 319 319 319 320 320 319 317 316 315 312 302 296 295 294 294 294 296 295 293 307 307 304 305 303 301 300 300
318 318 318 319 319 319 318 317 318 318 318 318 319 318 318 319 320 320 320 318 317 319 319 300 299 298 297 294 293 299 312 314 315 317 318 318 317 318 318 318 318 318 316 308 308 312 313 308 296 293 293 294 292 291 290 289 292 307 307 304 302 302 301
318 318 318 319 319 318 318 318 319 319 319 319 318 318 319 320 320 320 319 319 319 319 319 300 296 295 294 293 293 296 312 314 315 314 313 314 316 316 316 315 315 315 315 313 314 313 312 310 305 302 301 304 304 300 294 293 292 292 300 306 304 302 304
317 317 318 318 318 318 319 319 318 318 318 317 318 318 318 319 319 319 319 319 318 318 318 296 294 293 294 295 293 299 315 312 311 311 310 310 310 311 312 313 313 313 311 310 309 307 309 308 306 305 305 304 304 303 303 303 304 304 302 303 303 303 303
315 316 315 316 316 317 317 317 317 318 318 318 318 318 319 319 318 318 318 319 318 317 314 293 294 294 294 294 293 311 313 313 311 310 309 308 308 309 309 310 310 309 308 307 296 292 299 306 305 304 303 303 301 299 296 294 292 294 301 303 303 302 302
308 312 313 314 315 316 316 316 317 318 317 317 316 316 318 317 318 318 317 318 318 317 310 297 293 293 293 292 297 312 310 309 308 307 306 306 307 308 308 308 308 307 306 305 293 291 292 298 304 304 303 302 301 300 298 297 292 290 290 290 289 289 289
307 308 309 311 313 315 317 317 317 315 315 314 314 315 316 316 317 317 316 317 317 314 310 298 292 292 292 291 302 312 310 309 307 306 304 304 305 305 301 298 303 307 306 303 290 291 293 301 305 304 303 302 301 300 298 298 297 296 290 290 289 289 289
307 307 307 308 310 312 313 313 314 313 314 314 314 312 311 312 312 312 312 313 307 311 309 300 291 292 292 292 304 313 310 309 307 306 304 303 303 303 301 297 294 298 300 295 289 290 293 302 306 305 304 303 301 299 298 298 298 297 298 298 298 297 296
308 308 309 308 306 307 309 310 310 310 311 312 312 312 310 310 308 308 308 308 308 310 309 307 300 291 293 293 298 311 310 308 306 305 305 303 302 301 301 299 295 289 289 289 289 289 290 294 304 304 304 302 300 297 298 298 298 298 297 296 297 297 297
305 308 307 311 309 306 306 308 309 308 307 307 308 307 305 303 302 302 304 306 307 308 309 308 301 291 292 292 293 300 310 309 307 305 303 302 302 301 300 299 298 291 289 289 289 289 290 291 294 302 302 301 300 298 296 298 295 291 297 296 295 295 296
306 309 307 307 311 308 307 306 310 310 307 306 305 303 303 302 300 300 301 303 305 304 302 301 305 293 291 291 291 295 307 309 306 305 303 302 301 301 300 299 298 291 288 288 288 289 289 290 291 298 295 288 287 289 297 296 297 296 296 296 295 295 295
304 306 308 307 306 310 308 306 307 309 309 308 306 304 301 300 300 300 300 301 301 302 303 300 296 299 291 291 290 292 296 299 293 306 304 302 301 299 299 298 295 289 288 288 288 288 289 289 292 293 287 287 287 287 292 296 295 296 296 295 295 295 294
303 305 305 307 308 308 307 307 306 307 310 309 307 305 303 302 302 302 301 299 299 299 300 301 294 293 295 289 290 290 291 291 294 305 305 302 301 299 299 299 294 288 288 288 288 288 288 290 291 287 287 287 288 290 296 296 295 295 293 293 293 293 294
Wind_Speed
5 6 4 3 3 3 4 4 3 3 4 4 4 4 4 4 4 5 4 4 3 3 3 4 5 5 5 5 5 4 4 3 4 4 5 6 6 5 3 4 3 3 2 2 3 3 6 7 7 8 9 9 10 10 9 10 10 9 8 8 9 9 8
6 6 4 4 4 3 6 4 4 4 4 4 4 4 3 3 3 3 3 3 2 2 2 3 3 5 5 5 5 5 4 4 3 3 5 5 5 6 5 4 4 4 4 3 3 3 7 8 7 8 8 8 10 9 8 9 9 8 9 8 8 9 8
6 6 5 5 4 3 6 4 3 3 3 3 4 4 3 3 2 3 3 3 2 2 1 3 3 4 4 4 4 3 4 5 3 4 4 5 4 6 4 5 5 6 6 5 4 5 4 4 8 8 7 8 9 7 6 8 10 9 9 8 8 9 8
7 7 7 5 5 5 5 4 3 3 2 3 3 3 3 3 3 4 4 4 3 2 3 3 3 3 3 4 4 6 6 6 4 5 6 5 5 5 5 5 5 4 4 5 4 4 5 6 8 8 6 7 9 8 7 7 8 9 9 8 9 9 8
7 6 6 6 5 6 5 4 3 3 3 3 3 3 3 3 3 4 4 4 3 3 3 3 3 3 4 4 4 5 5 6 7 7 6 6 4 4 3 3 4 4 4 4 4 3 4 7 8 9 8 7 7 7 5 5 8 9 9 9 9 8 8
5 6 6 6 4 5 4 4 3 4 3 3 2 3 4 4 3 3 3 3 3 2 3 3 3 3 3 4 5 6 6 7 6 7 6 6 5 6 5 3 4 5 5 4 4 4 3 5 7 9 6 4 7 6 5 3 5 8 8 8 8 8 8
6 5 4 5 4 3 3 3 3 4 4 3 3 4 3 2 3 3 3 3 3 3 3 3 4 3 3 4 5 5 6 5 5 6 6 6 5 5 4 5 5 5 4 3 4 4 4 6 7 8 8 5 6 7 5 5 3 4 7 7 7 8 8
7 6 4 4 4 4 2 2 2 2 3 3 3 3 3 3 3 2 3 4 3 3 3 3 3 3 3 4 5 5 5 4 5 5 5 6 5 5 5 5 5 5 4 4 3 4 4 4 6 8 10 10 7 5 6 5 7 7 5 7 7 7 7
5 5 6 5 4 4 2 1 1 2 2 3 3 4 3 2 2 3 4 4 3 3 3 3 3 3 3 5 5 5 5 2 5 6 5 5 5 6 6 5 5 6 4 4 4 4 5 5 4 2 4 7 9 8 5 5 5 7 5 4 7 8 7
5 7 6 6 5 4 1 2 1 2 3 2 3 3 4 3 2 2 3 4 4 3 3 4 4 4 4 5 5 5 5 3 4 5 3 4 5 5 5 5 6 5 4 4 4 4 4 4 4 3 2 2 4 7 6 6 5 4 6 5 4 6 7
3 6 9 6 4 3 2 1 1 3 4 3 3 3 4 3 3 3 3 3 3 4 4 4 4 5 5 5 5 5 4 4 5 3 3 4 4 4 5 5 5 5 4 4 4 3 3 3 4 5 5 4 3 4 4 6 5 3 4 4 5 4 5
3 1 6 9 7 6 6 4 3 3 4 5 4 4 4 4 3 3 2 3 3 4 4 4 4 4 4 5 5 5 4 3 4 4 3 3 3 4 5 5 5 5 3 3 3 2 2 3 4 4 5 5 6 5 4 5 6 3 3 4 4 5 5
4 3 2 5 6 6 5 4 4 4 4 5 5 5 4 4 4 4 3 3 3 3 4 4 3 4 3 4 4 5 4 4 6 5 4 3 2 2 4 4 3 4 2 3 3 3 3 3 2 4 4 5 5 5 4 5 7 6 3 3 3 3 4
8 5 3 3 3 3 4 4 4 3 2 4 6 5 5 4 4 4 4 3 3 3 3 3 3 3 3 3 3 4 4 4 5 5 4 4 3 3 3 4 4 3 2 3 4 3 4 4 3 3 4 4 5 4 4 5 6 6 4 2 2 3 3
8 6 6 3 3 3 4 5 5 5 5 3 3 6 6 4 4 4 3 3 3 3 3 4 3 2 2 3 3 1 2 3 3 4 3 4 4 2 3 4 5 4 2 3 4 5 5 5 5 5 4 4 4 4 2 4 5 5 5 3 3 2 3
8 7 6 5 5 5 5 5 5 6 5 4 2 2 5 6 5 5 4 4 4 3 3 3 3 2 2 1 1 2 2 2 3 4 4 4 5 4 3 4 5 4 2 4 4 3 4 5 4 5 5 4 5 4 4 4 4 5 5 4 2 3 2
7 6 6 5 6 6 5 5 6 5 5 5 4 2 2 6 6 5 5 5 4 4 3 3 3 2 2 2 2 2 2 3 3 4 4 5 5 5 6 5 5 4 4 5 5 4 4 4 4 5 5 4 5 5 4 3 3 4 4 5 2 2 2
7 7 6 5 5 6 6 6 6 7 6 5 6 5 3 4 6 7 6 6 5 5 4 4 4 3 3 2 0 2 3 4 3 4 4 4 4 5 6 6 6 6 5 5 5 5 5 6 5 5 5 4 4 4 3 3 4 4 4 5 4 2 2
7 6 6 5 5 5 5 6 6 6 7 6 6 7 7 5 5 6 7 7 6 5 5 4 3 2 2 1 0 1 3 4 5 5 5 5 5 5 6 7 6 6 7 7 6 5 6 7 5 5 5 4 5 4 4 4 3 4 4 4 3 3 2
6 6 6 6 5 6 6 6 7 7 7 8 8 8 8 8 6 6 6 6 6 6 5 5 4 4 5 5 4 4 4 4 5 5 6 6 6 6 6 7 7 7 8 8 7 7 7 6 5 6 5 5 4 5 4 3 3 4 3 3 3 1 2
6 6 5 4 5 6 6 6 7 7 7 8 8 9 9 9 7 6 6 6 6 5 5 4 4 5 6 7 7 6 5 5 6 6 6 6 6 7 7 7 7 7 8 9 8 7 8 7 6 6 5 5 5 5 4 4 3 3 3 2 1 2 1
5 5 6 6 7 5 2 1 4 6 6 6 5 7 8 9 8 6 6 5 5 7 7 6 5 4 5 6 6 7 7 7 7 7 7 6 6 6 6 7 7 7 8 8 7 5 7 8 7 7 6 6 6 6 5 4 4 3 3 2 2 2 1
5 6 8 7 6 4 5 6 5 6 7 7 7 7 8 8 8 6 5 5 4 5 4 1 4 4 4 6 6 7 6 6 7 7 7 7 6 6 6 5 5 6 6 8 8 8 7 9 11 8 8 7 7 6 5 5 4 3 2 2 1 1 2
6 8 7 5 4 6 8 8 7 5 3 5 7 7 5 5 6 7 9 9 9 8 7 9 15 9 8 13 8 6 7 7 6 6 6 6 6 6 4 4 4 4 6 7 8 10 10 11 12 9 10 12 9 9 7 5 3 3 2 1 1 1 2
6 8 7 8 7 9 9 9 10 12 10 12 13 13 13 10 9 9 10 11 10 9 8 11 13 10 12 12 7 5 4 4 4 4 4 5 4 4 5 5 4 3 3 4 4 7 9 11 11 6 6 9 7 6 9 1 3 3 3 2 2 3 2
8 9 10 8 8 10 10 12 12 12 12 11 8 9 11 10 9 8 9 11 11 9 8 12 14 13 12 8 6 4 3 3 4 3 2 2 3 3 3 3 3 3 2 2 5 5 5 6 7 5 6 8 9 6 6 8 8 4 2 3 3 3 3
7 9 9 9 10 11 11 11 9 8 7 8 9 9 9 9 8 8 9 10 8 8 7 11 12 11 9 6 5 4 2 1 1 2 3 3 3 3 3 3 3 3 2 2 2 2 3 4 7 7 7 6 5 6 7 7 7 8 5 1 1 2 2
7 8 8 9 10 10 8 7 8 8 9 11 11 10 10 9 7 8 8 8 7 7 6 11 10 9 7 6 5 4 2 2 2 2 2 3 3 3 3 2 3 3 2 2 2 2 2 4 7 7 7 6 5 5 5 5 4 3 3 2 2 2 3
6 6 5 5 7 8 6 7 10 9 7 7 6 5 5 5 6 7 8 8 8 8 5 10 11 10 9 7 7 4 4 3 3 3 3 3 2 2 2 3 2 2 3 3 5 5 2 4 7 7 7 7 6 6 7 5 7 8 7 5 4 4 3
4 5 6 6 7 8 8 8 7 3 3 6 6 7 7 7 7 8 8 8 9 7 6 7 10 11 9 9 7 4 4 4 4 3 2 1 2 3 3 3 2 2 3 5 5 6 4 2 6 6 6 6 5 5 5 5 7 9 9 9 9 8 7
3 4 4 7 9 8 6 6 7 7 11 6 3 5 4 5 6 7 9 10 9 9 8 7 10 10 11 11 8 6 5 5 5 4 4 3 3 5 7 10 5 4 4 5 5 6 3 2 4 5 5 6 5 5 4 3 3 3 5 6 6 5 5
4 3 4 5 6 7 6 6 6 6 7 9 10 7 5 4 4 2 2 3 9 10 8 6 9 11 11 11 7 5 5 5 5 4 5 5 5 6 6 9 12 9 7 7 8 7 4 2 4 4 4 4 4 4 4 3 3 3 2 2 3 3 4
7 5 5 2 2 4 3 4 6 7 4 5 6 6 6 6 7 6 6 5 5 7 8 6 7 11 12 11 9 6 5 5 5 5 4 5 6 5 6 7 8 9 11 11 11 11 10 9 6 5 3 3 4 4 4 3 2 1 1 0 0 1 2
9 6 5 4 2 1 2 4 6 6 6 4 4 4 5 5 6 6 5 4 5 5 5 7 6 9 10 10 9 8 5 4 6 6 6 6 5 6 5 6 6 7 10 11 11 11 11 10 7 5 4 3 4 5 3 3 3 2 0 0 2 3 3
8 5 2 5 3 3 2 2 2 5 6 7 7 3 2 4 5 5 4 4 5 5 4 3 7 6 9 10 9 5 4 5 6 7 6 6 6 6 5 5 6 6 10 11 11 11 11 10 9 7 7 8 7 4 3 3 1 0 1 2 3 4 4
7 6 4 2 5 3 2 3 2 3 6 7 7 8 2 2 4 5 5 4 4 4 4 4 4 6 7 7 6 5 7 8 5 6 7 6 6 6 6 7 6 7 10 10 10 10 9 9 9 7 7 7 7 4 1 1 1 1 2 3 4 5 5
7 6 6 5 2 2 2 1 2 4 6 7 6 6 6 6 6 6 6 5 4 3 3 4 3 3 6 6 8 10 11 10 7 5 6 6 6 7 7 6 7 8 10 11 11 11 11 10 7 7 7 6 4 1 1 1 1 2 3 4 5 5 5
Wind_Direction
123 128 130 109 98 103 87 76 76 71 78 91 113 119 124 133 135 140 145 141 143 130 142 140 139 141 144 149 162 154 151 162 160 159 156 162 165 135 132 127 122 111 79 43 154 184 140 131 104 85 73 64 62 58 58 60 58 54 53 53 55 55 51
118 122 121 117 109 102 90 73 67 71 70 68 79 102 108 126 142 144 140 138 122 111 122 119 122 134 144 151 159 163 166 157 142 136 151 156 150 145 145 136 145 118 104 79 87 117 128 127 116 115 104 84 69 58 58 58 60 58 56 55 54 56 52
129 125 126 114 101 93 89 80 82 74 70 79 75 73 86 97 107 117 124 107 95 96 98 96 110 127 140 147 153 153 151 133 122 143 139 136 139 150 150 138 128 119 115 110 94 103 92 121 140 140 129 110 86 62 51 58 60 60 60 56 53 51 50
130 128 125 113 114 111 103 89 83 79 62 73 82 82 73 84 90 84 90 99 93 96 110 125 131 129 130 128 131 134 133 131 128 116 119 120 124 132 144 147 145 149 142 140 141 141 139 129 130 131 126 108 107 96 67 56 57 60 61 57 54 49 45
138 136 130 127 124 118 113 109 105 103 90 82 76 83 71 59 75 80 78 89 97 106 104 105 110 116 119 122 124 123 115 108 120 125 125 129 130 122 117 112 98 99 107 119 118 131 144 145 144 139 132 126 112 100 105 81 68 65 57 55 53 52 47
129 125 121 117 115 116 114 116 125 115 116 107 80 83 67 52 56 85 90 92 103 90 101 103 99 103 110 109 108 106 109 115 120 127 129 130 132 127 120 100 108 105 102 97 118 117 100 119 135 132 124 139 119 115 113 122 96 70 56 57 56 50 48
125 115 115 120 109 97 107 119 133 130 126 110 102 78 64 58 62 61 80 80 74 93 91 94 98 99 101 110 107 101 98 95 106 108 112 113 101 106 121 120 109 109 107 112 116 125 129 139 138 134 130 112 121 117 109 99 93 107 73 58 55 54 51
131 132 115 96 101 106 85 95 107 119 122 104 96 89 70 59 64 72 67 78 71 73 82 90 88 88 82 90 90 91 95 104 112 113 117 123 121 125 115 117 118 114 113 115 107 94 101 114 135 141 141 134 128 124 119 110 91 64 82 77 48 57 55
98 105 104 92 81 54 23 114 139 114 90 104 96 102 78 71 69 81 88 76 70 67 64 71 78 91 85 93 96 94 96 85 108 111 114 113 113 116 116 118 116 108 108 102 94 80 78 78 96 143 165 147 142 134 129 109 90 77 40 76 75 49 52
81 90 83 93 105 102 52 317 130 114 109 111 106 99 101 84 77 69 88 92 84 87 84 75 76 78 73 78 85 87 87 76 90 97 97 113 114 118 120 114 108 112 99 85 83 85 85 80 76 70 69 117 135 136 135 106 79 85 65 32 57 57 42
172 128 123 118 103 98 137 211 191 157 137 130 126 119 115 106 98 88 97 96 95 90 87 90 90 92 94 89 85 80 77 79 85 79 78 99 105 111 119 118 115 112 108 103 97 92 94 89 82 75 70 60 48 102 114 112 100 55 80 71 46 57 46
185 212 145 139 143 170 172 175 195 159 137 147 150 148 142 136 134 126 126 114 105 99 92 87 90 90 97 105 100 99 91 102 102 94 77 88 90 109 116 116 118 117 125 114 120 111 104 103 100 97 87 73 70 69 92 116 115 73 11 63 63 49 45
157 148 272 125 145 165 165 165 176 178 181 157 158 157 158 156 159 155 150 142 128 109 100 90 80 85 91 99 117 121 122 133 129 127 126 120 122 119 125 126 123 122 134 139 130 128 121 99 98 107 103 100 94 84 82 84 96 107 66 55 73 76 51
168 153 207 119 146 145 154 175 181 183 186 189 158 161 166 167 165 157 148 139 127 113 104 96 81 86 98 104 109 117 137 148 146 142 144 145 147 154 145 135 132 128 150 137 131 138 133 130 128 113 110 109 102 94 89 102 110 119 118 78 73 74 44
171 164 165 165 174 172 172 190 180 174 192 218 189 161 164 157 153 142 126 122 118 114 112 104 106 107 118 130 123 123 149 161 159 146 159 161 158 161 161 156 149 156 186 154 157 151 144 151 146 139 131 121 109 103 86 97 100 115 123 144 122 112 82
179 168 167 172 182 182 181 186 198 191 175 168 244 216 160 153 149 139 128 119 118 116 116 115 113 116 102 81 161 164 174 192 186 176 180 177 177 168 180 179 172 172 181 175 176 154 158 159 158 139 132 126 118 112 110 107 121 112 126 122 145 123 107
167 173 185 196 187 183 179 183 188 206 181 155 170 220 191 157 143 139 133 129 126 123 126 124 110 88 70 50 342 313 255 212 210 215 209 196 188 188 195 193 188 184 186 190 182 171 177 167 166 144 145 135 134 129 118 125 107 113 130 129 134 113 121
178 182 194 208 205 182 186 186 187 192 185 176 160 157 168 157 149 147 143 141 132 124 115 102 97 104 115 113 44 303 291 282 262 236 228 225 211 210 203 209 199 190 192 200 191 192 181 182 172 162 160 152 144 133 133 126 117 121 127 125 135 139 153
198 190 197 206 195 178 187 192 187 186 185 175 162 157 156 164 163 149 141 135 130 122 115 104 88 71 73 88 95 246 251 253 256 254 238 231 225 220 221 219 210 199 200 206 203 196 186 187 175 177 168 168 149 146 141 139 136 118 114 113 131 143 155
222 203 194 208 206 201 192 187 183 187 186 175 170 162 157 155 156 147 135 128 122 104 82 67 52 29 4 357 332 299 263 241 235 233 238 233 231 231 232 230 219 208 211 213 209 198 189 186 185 184 175 164 164 157 160 155 145 132 120 129 125 107 138
231 232 225 213 213 218 207 178 185 179 179 183 178 167 158 149 138 124 120 114 108 109 91 75 50 25 0 341 320 303 286 259 253 242 231 226 222 225 227 230 229 220 220 219 216 204 190 189 187 190 177 172 170 174 170 159 159 142 140 138 119 143 152
226 240 230 230 221 195 157 159 189 186 180 181 167 161 143 132 128 105 80 69 66 61 50 28 3 7 348 311 302 296 279 268 260 260 254 242 226 226 230 228 227 226 222 239 240 231 206 189 183 191 178 179 177 183 181 177 171 159 157 165 158 181 214
201 211 219 217 209 165 153 170 187 187 183 175 167 147 139 136 128 124 103 109 98 86 97 58 308 296 269 277 280 269 264 261 256 254 257 260 254 242 244 245 240 224 231 233 237 238 237 220 210 203 174 178 174 178 182 187 188 189 180 184 161 328 301
201 213 214 215 178 171 165 163 166 183 179 138 140 149 154 179 182 155 209 197 168 161 180 180 202 207 233 249 253 265 263 262 254 253 255 261 267 275 268 264 270 206 204 217 224 220 219 216 224 241 184 181 174 178 184 188 192 186 190 205 131 197 293
210 224 226 215 184 185 169 161 174 185 183 178 175 173 182 203 205 198 204 193 180 179 200 162 161 189 225 239 232 247 260 267 267 261 263 266 274 281 286 287 285 283 259 242 253 207 207 213 215 228 194 179 171 37 22 17 180 186 189 185 159 204 243
224 226 228 218 199 192 171 176 190 195 192 198 189 183 192 196 207 202 196 194 190 181 186 159 170 191 214 220 219 220 251 257 255 263 283 301 311 310 309 303 296 289 299 161 226 235 217 193 174 136 128 102 74 74 67 52 30 358 206 195 205 203 226
231 230 226 221 208 195 187 192 196 195 191 197 202 199 196 197 198 195 192 193 179 170 171 163 167 182 197 191 184 193 229 224 344 9 9 6 353 344 337 322 319 317 333 302 284 238 220 183 157 149 154 158 131 105 86 71 71 54 35 13 239 258 109
232 230 224 221 212 204 198 199 204 199 193 198 202 202 199 200 194 185 183 184 174 166 158 152 161 168 156 147 150 199 154 155 110 67 43 29 12 6 356 343 333 339 354 339 7 330 213 179 160 149 139 115 100 75 53 38 30 38 60 58 65 80 99
225 218 213 214 220 215 210 210 212 210 204 206 208 203 203 202 183 177 174 171 169 165 135 145 149 148 136 134 167 185 141 108 98 83 58 32 19 23 18 1 7 29 32 46 53 35 21 143 139 127 115 108 98 82 67 53 37 42 47 60 71 80 88
249 236 224 223 222 220 214 218 217 181 230 239 215 204 200 190 184 178 171 172 172 152 128 149 147 138 137 154 193 141 130 126 116 109 86 83 78 55 36 22 47 57 69 68 44 67 59 77 125 125 121 115 111 109 101 78 54 54 60 63 66 69 70
272 219 222 221 228 228 215 207 206 175 200 196 260 252 220 173 172 178 178 177 171 149 146 144 146 141 154 183 202 148 152 139 130 127 120 94 87 77 54 33 27 80 83 77 74 80 66 135 126 123 127 130 133 121 109 105 110 87 74 78 77 83 83
327 273 202 224 234 236 218 212 198 183 195 185 191 186 187 178 163 140 133 144 146 141 136 144 151 153 168 183 187 150 150 140 127 121 115 96 80 84 75 53 42 52 71 80 71 69 55 90 120 129 136 136 127 120 115 134 127 136 157 167 151 170 180
334 327 305 158 229 239 219 190 179 183 183 184 178 175 170 165 155 152 142 150 148 137 132 137 156 163 166 169 176 159 157 152 139 130 115 118 108 93 87 82 66 61 79 78 75 69 58 52 89 107 123 131 136 130 140 139 78 45 114 228 182 229 276
324 331 323 296 148 179 217 188 161 154 142 128 125 143 150 152 135 126 130 135 124 116 125 141 154 166 156 164 171 177 161 146 139 139 137 132 127 120 107 91 89 66 78 76 75 71 69 59 57 84 76 91 68 87 118 137 118 245 207 316 274 268 264
320 320 356 318 290 170 190 216 203 147 139 137 126 121 157 140 115 106 100 100 105 115 110 118 143 166 168 168 174 194 168 153 149 146 142 131 126 121 114 115 107 90 87 83 78 75 68 61 49 72 64 76 86 96 101 93 102 89 279 276 285 287 286
317 311 295 263 298 282 172 192 188 157 128 125 126 121 73 12 78 105 112 111 112 111 125 131 136 151 163 161 153 174 144 141 167 156 144 140 129 120 115 109 103 95 91 87 85 83 83 88 82 85 97 92 89 109 171 80 27 285 299 301 301 295 296
314 308 294 284 244 245 259 251 208 194 167 150 146 136 157 168 164 145 141 134 128 129 118 125 100 113 138 144 141 142 140 144 160 130 130 128 123 123 128 122 113 110 100 96 88 79 66 63 86 97 98 103 121 164 15 17 307 328 302 296 296 299 301